When you browse on this site, cookies collect data to enhance your experience and personalize the content and advertising you see.
Visit our Privacy Policy to learn more. By continuing to use the site, you agree to this use of cookies and data.
  • In Romania
  • List of Countries
  • For 7 days
  • Water Temperature
  • Satellite Maps
  • Weather Map
  • Weather Widgets
  • user-avatar
    Login

    Hourly Weather Wicklow

    Today, 18 January, Friday

    Time Temperature Precipitation Wind Pressure Humidity
    00:00 -1°C° 0 mm 4 mps 716 mmHg 73%
    01:00 -1°C° 0.2 mm 5 mps 715 mmHg 74%
    02:00 -2°C° 0.2 mm 6 mps 714 mmHg 75%
    03:00 -1°C° 0.2 mm 6 mps 713 mmHg 76%
    04:00 -1°C° 0.5 mm 7 mps 713 mmHg 79%
    05:00 -1°C° 0.5 mm 8 mps 712 mmHg 83%
    06:00 -1°C° 0 mm 8 mps 711 mmHg 87%
    07:00 0°C° 0.4 mm 8 mps 711 mmHg 89%
    08:00 0°C° 0.4 mm 7 mps 710 mmHg 92%
    09:00 +2°C° 0.4 mm 6 mps 710 mmHg 95%
    10:00 +2°C° 0.1 mm 5 mps 710 mmHg 94%
    11:00 +4°C° 0.1 mm 4 mps 710 mmHg 92%
    12:00 +5°C° 0.1 mm 3 mps 710 mmHg 91%
    13:00 +5°C° 0 mm 2 mps 709 mmHg 91%
    14:00 +5°C° 0 mm 2 mps 709 mmHg 90%
    15:00 +5°C° 0 mm 2 mps 709 mmHg 90%
    16:00 +4°C° 0 mm 2 mps 708 mmHg 92%
    17:00 +3°C° 0 mm 2 mps 708 mmHg 93%
    18:00 +2°C° 0 mm 2 mps 708 mmHg 95%
    19:00 +2°C° 0 mm 2 mps 708 mmHg 95%
    20:00 +2°C° 0 mm 2 mps 708 mmHg 95%
    21:00 +1°C° 0 mm 2 mps 708 mmHg 95%
    22:00 +2°C° 0.2 mm 2 mps 708 mmHg 96%
    23:00 +2°C° 0.2 mm 2 mps 708 mmHg 96%

    Tomorrow, 19 January, Saturday

    Time Temperature Precipitation Wind Pressure Humidity
    00:00 +2°C° 0.2 mm 2 mps 708 mmHg 96%
    01:00 +3°C° 0.1 mm 1 mps 708 mmHg 96%
    02:00 +3°C° 0.1 mm 1 mps 708 mmHg 96%
    03:00 +3°C° 0.1 mm 1 mps 708 mmHg 96%
    04:00 +2°C° 0 mm 1 mps 708 mmHg 96%
    05:00 +2°C° 0 mm 1 mps 708 mmHg 96%
    06:00 +2°C° 0 mm 1 mps 707 mmHg 95%
    07:00 +2°C° 0 mm 1 mps 708 mmHg 95%
    08:00 +1°C° 0 mm 1 mps 708 mmHg 95%
    09:00 +1°C° 0 mm 1 mps 708 mmHg 95%
    10:00 +2°C° 0 mm 1 mps 708 mmHg 93%
    11:00 +4°C° 0 mm 1 mps 709 mmHg 91%
    12:00 +5°C° 0 mm 1 mps 709 mmHg 89%
    13:00 +5°C° 0 mm 1 mps 709 mmHg 90%
    14:00 +5°C° 0 mm 1 mps 709 mmHg 91%
    15:00 +4°C° 0 mm 2 mps 709 mmHg 92%
    16:00 +4°C° 0 mm 2 mps 710 mmHg 93%
    17:00 +3°C° 0 mm 2 mps 710 mmHg 95%
    18:00 +2°C° 0 mm 2 mps 711 mmHg 97%
    19:00 +2°C° 0 mm 2 mps 711 mmHg 96%
    20:00 +2°C° 0 mm 2 mps 712 mmHg 96%
    21:00 +2°C° 0 mm 2 mps 712 mmHg 96%
    22:00 +2°C° 0 mm 2 mps 713 mmHg 96%
    23:00 +2°C° 0 mm 2 mps 713 mmHg 95%

    Day after tomorrow, 20 January, Sunday

    Time Temperature Precipitation Wind Pressure Humidity
    00:00 +2°C° 0 mm 2 mps 714 mmHg 95%
    01:00 +2°C° 0 mm 2 mps 714 mmHg 95%
    02:00 +2°C° 0 mm 2 mps 714 mmHg 94%
    03:00 +2°C° 0 mm 2 mps 715 mmHg 94%
    04:00 +1°C° 0 mm 2 mps 715 mmHg 95%
    05:00 +1°C° 0 mm 2 mps 716 mmHg 95%
    06:00 +1°C° 0 mm 2 mps 716 mmHg 96%
    07:00 0°C° 0 mm 3 mps 717 mmHg 95%
    08:00 0°C° 0 mm 4 mps 718 mmHg 95%
    09:00 0°C° 0 mm 4 mps 719 mmHg 95%
    10:00 0°C° 0.1 mm 5 mps 720 mmHg 93%
    11:00 0°C° 0.1 mm 5 mps 720 mmHg 90%
    12:00 -1°C° 0.1 mm 6 mps 721 mmHg 88%
    13:00 -1°C° 0 mm 6 mps 721 mmHg 85%
    14:00 -1°C° 0 mm 6 mps 722 mmHg 82%
    15:00 -1°C° 0 mm 6 mps 722 mmHg 80%
    16:00 -1°C° 0 mm 5 mps 723 mmHg 82%
    17:00 -1°C° 0 mm 5 mps 723 mmHg 84%
    18:00 -2°C° 0 mm 4 mps 724 mmHg 87%
    19:00 -3°C° 0 mm 4 mps 724 mmHg 88%
    20:00 -2°C° 0 mm 3 mps 725 mmHg 88%
    21:00 -4°C° 0 mm 3 mps 725 mmHg 89%
    22:00 -4°C° 0 mm 3 mps 726 mmHg 89%
    23:00 -4°C° 0 mm 3 mps 726 mmHg 90%

    21 January, Monday

    Time Temperature Precipitation Wind Pressure Humidity
    00:00 -4°C° 0 mm 2 mps 726 mmHg 90%
    01:00 -4°C° 0 mm 2 mps 726 mmHg 90%
    02:00 -4°C° 0 mm 2 mps 726 mmHg 90%
    03:00 -4°C° 0 mm 2 mps 726 mmHg 90%
    04:00 -4°C° 0 mm 2 mps 726 mmHg 90%
    05:00 -4°C° 0 mm 2 mps 725 mmHg 89%
    06:00 -4°C° 0 mm 2 mps 725 mmHg 89%
    07:00 -4°C° 0 mm 2 mps 725 mmHg 87%
    08:00 -4°C° 0 mm 3 mps 725 mmHg 86%
    09:00 -4°C° 0 mm 3 mps 724 mmHg 84%
    10:00 -2°C° 0 mm 5 mps 724 mmHg 81%
    11:00 -2°C° 0 mm 6 mps 723 mmHg 79%
    12:00 0°C° 0 mm 7 mps 723 mmHg 76%
    13:00 0°C° 0 mm 8 mps 721 mmHg 77%
    14:00 0°C° 0 mm 8 mps 719 mmHg 77%
    15:00 +1°C° 0 mm 9 mps 718 mmHg 78%
    16:00 +1°C° 0.6 mm 9 mps 717 mmHg 82%
    17:00 +1°C° 0.6 mm 10 mps 716 mmHg 86%
    18:00 +1°C° 0.6 mm 10 mps 714 mmHg 90%
    19:00 0°C° 0.7 mm 9 mps 714 mmHg 89%
    20:00 -1°C° 0.7 mm 9 mps 713 mmHg 88%
    21:00 -2°C° 0.7 mm 8 mps 713 mmHg 87%
    22:00 -3°C° 0 mm 7 mps 713 mmHg 86%
    23:00 -3°C° 0 mm 7 mps 713 mmHg 86%

    22 January, Tuesday

    Time Temperature Precipitation Wind Pressure Humidity
    00:00 -4°C° 0 mm 7 mps 713 mmHg 86%
    01:00 -4°C° 0 mm 6 mps 712 mmHg 84%
    02:00 -5°C° 0 mm 6 mps 712 mmHg 83%
    03:00 -5°C° 0 mm 6 mps 711 mmHg 82%
    04:00 -5°C° 0.1 mm 6 mps 711 mmHg 83%
    05:00 -4°C° 0.1 mm 7 mps 710 mmHg 84%
    06:00 -4°C° 0.1 mm 7 mps 710 mmHg 85%
    07:00 -4°C° 0.1 mm 7 mps 710 mmHg 85%
    08:00 -6°C° 0.1 mm 7 mps 710 mmHg 85%
    09:00 -6°C° 0.1 mm 7 mps 710 mmHg 85%
    10:00 -4°C° 0.4 mm 7 mps 709 mmHg 85%
    11:00 -4°C° 0.4 mm 7 mps 709 mmHg 85%
    12:00 -4°C° 0.4 mm 7 mps 709 mmHg 85%
    13:00 -4°C° 0.3 mm 7 mps 709 mmHg 85%
    14:00 -4°C° 0.3 mm 7 mps 708 mmHg 84%
    15:00 -3°C° 0.3 mm 7 mps 708 mmHg 84%
    16:00 -4°C° 0.3 mm 7 mps 708 mmHg 85%
    17:00 -4°C° 0.3 mm 6 mps 708 mmHg 87%
    18:00 -4°C° 0.3 mm 6 mps 708 mmHg 89%
    19:00 -4°C° 0.2 mm 5 mps 708 mmHg 90%
    20:00 -4°C° 0.2 mm 5 mps 707 mmHg 90%
    21:00 -3°C° 0.2 mm 4 mps 707 mmHg 91%
    22:00 -3°C° 0.4 mm 4 mps 707 mmHg 92%
    23:00 -3°C° 0.4 mm 4 mps 707 mmHg 93%

    23 January, Wednesday

    Time Temperature Precipitation Wind Pressure Humidity
    00:00 -2°C° 0.4 mm 4 mps 706 mmHg 94%
    01:00 -4°C° 0.2 mm 5 mps 706 mmHg 92%
    02:00 -4°C° 0.2 mm 5 mps 706 mmHg 91%
    03:00 -4°C° 0.2 mm 5 mps 706 mmHg 89%
    04:00 -4°C° 0.1 mm 6 mps 705 mmHg 89%
    05:00 -4°C° 0.1 mm 6 mps 705 mmHg 89%
    06:00 -4°C° 0.1 mm 7 mps 705 mmHg 88%
    07:00 -4°C° 0.1 mm 7 mps 705 mmHg 87%
    08:00 -4°C° 0.1 mm 7 mps 705 mmHg 87%
    09:00 -4°C° 0.1 mm 7 mps 705 mmHg 86%
    10:00 -5°C° 0.1 mm 8 mps 705 mmHg 84%
    11:00 -4°C° 0.1 mm 9 mps 706 mmHg 83%
    12:00 -3°C° 0.1 mm 9 mps 706 mmHg 81%
    13:00 -3°C° 0 mm 9 mps 707 mmHg 80%
    14:00 -2°C° 0 mm 8 mps 707 mmHg 80%
    15:00 -2°C° 0 mm 8 mps 708 mmHg 79%
    16:00 -3°C° 0 mm 7 mps 709 mmHg 81%
    17:00 -4°C° 0 mm 6 mps 710 mmHg 83%
    18:00 -4°C° 0 mm 6 mps 711 mmHg 84%
    19:00 -4°C° 0 mm 6 mps 711 mmHg 85%
    20:00 -3°C° 0 mm 7 mps 711 mmHg 86%
    21:00 -3°C° 0 mm 7 mps 712 mmHg 86%
    22:00 -3°C° 0 mm 7 mps 712 mmHg 87%
    23:00 -3°C° 0 mm 7 mps 713 mmHg 88%
    Show more